Location: Newark
(48.1500°N, 2.9667°W)
Time: 13:37:25
(UTC+00:00)

A-11 Canister half - Pass Details

Date: 24 January 2020
Orbit: 1524 x 1684 km, 47.3° (Epoch: 24 February)

Event Time Altitude Azimuth Distance (km) Brightness Sun altitude
Rises 18:36:51 0° 237° (WSW) 4,672 12.8 -16.3°
Reaches altitude 10° 18:39:53 10° 234° (SW) 3,699 12.0 -16.8°
Maximum altitude 18:49:04 65° 155° (SSE) 1,686 9.1 -18.3°
Enters shadow 18:54:48 27° 83° (E) 2,679 9.6 -19.2°
Drops below altitude 10° 18:58:34 10° 77° (ENE) 3,811 - -19.9°
Sets 19:01:44 0° 75° (ENE) 4,820 - -20.4°
